GW0586 Weather Reports


time (UTC)temp
C
wind
direction
speed
KPH
gust
KPH
rain 1hr
cm
rain 24hr
cm
rain mn
cm
humidity
%
barometer
mb
20260506004723 10 94 1.6 9.7 0.00 0.13 0.13 53 1010.7
20260506004221 10 15 0.0 3.2 0.00 0.13 0.13 55 1011.4
20260506003717 10 315 4.8 8.0 0.00 0.13 0.13 55 1011.5
20260506003214 11 16 0.0 1.6 0.00 0.13 0.13 54 1011.2
20260506002709 11 17 1.6 20.9 0.00 0.13 0.13 51 1010.8
20260506002206 11 232 8.0 11.3 0.00 0.13 0.13 52 1011.0
20260506001702 11 23 8.0 12.9 0.00 0.13 0.13 53 1010.9
20260506001200 11 296 6.4 9.7 0.00 0.13 0.13 53 1010.9
20260506000656 11 250 3.2 12.9 0.00 0.13 0.13 53 1011.0
20260506000154 11 350 4.8 11.3 0.00 0.13 0.13 54 1011.0
20260505235652 11 300 3.2 9.7 0.00 0.13 0.13 52 1011.2
20260505235149 13 233 6.4 11.3 0.00 0.13 0.13 49 1010.7
20260505234645 13 321 6.4 11.3 0.00 0.13 0.13 49 1010.8
20260505234142 13 358 1.6 3.2 0.00 0.13 0.13 53 1010.8
20260505233639 12 7 3.2 12.9 0.00 0.13 0.13 53 1010.9
20260505233137 12 310 9.7 14.5 0.00 0.13 0.13 52 1011.0
20260505232634 12 353 4.8 11.3 0.00 0.13 0.13 53 1010.9
20260505232132 12 300 4.8 11.3 0.00 0.13 0.13 54 1011.2
20260505231628 13 358 3.2 12.9 0.00 0.13 0.13 51 1011.3
20260505231127 12 306 8.0 12.9 0.00 0.13 0.13 52 1011.3
20260505230625 12 269 4.8 9.7 0.00 0.13 0.13 58 1010.9
20260505230121 12 293 9.7 11.3 0.00 0.13 0.13 60 1010.8
20260505225617 11 306 4.8 12.9 0.00 0.13 0.13 62 1010.9
20260505225114 11 353 1.6 12.9 0.00 0.13 0.13 67 1011.2
20260505224610 10 241 3.2 4.8 0.00 0.13 0.13 75 1011.0
20260505224108 10 298 4.8 8.0 0.00 0.13 0.13 75 1011.4
20260505223605 10 162 4.8 4.8 0.00 0.13 0.13 77 1011.4
20260505223101 9 295 4.8 9.7 0.00 0.13 0.13 83 1011.5
20260505222558 8 169 1.6 3.2 0.00 0.13 0.13 78 1011.9
20260505222054 8 32 0.0 1.6 0.18 0.13 0.13 87 1011.9
20260505221551 8 260 4.8 12.9 0.18 0.13 0.13 81 1012.0
20260505221047 8 14 3.2 16.1 0.13 0.10 0.10 78 1011.9
20260505220545 8 263 6.4 16.1 0.13 0.10 0.10 75 1011.9
20260505220043 9 306 3.2 20.9 0.00 0.08 0.08 72 1012.2
20260505215541 9 287 3.2 11.3 0.00 0.08 0.08 72 1011.8
20260505215038 10 270 8.0 17.7 0.00 0.08 0.08 64 1012.3
20260505214536 11 251 8.0 16.1 0.00 0.08 0.08 62 1012.2
20260505214032 12 224 6.4 12.9 0.00 0.08 0.08 59 1011.5
20260505213530 12 233 8.0 14.5 0.00 0.08 0.08 55 1011.7
20260505213026 13 329 3.2 14.5 0.00 0.08 0.08 53 1011.9
20260505212523 13 245 9.7 16.1 0.00 0.08 0.08 52 1012.0
20260505212020 13 201 9.7 22.5 0.00 0.08 0.08 51 1011.9
20260505211517 13 292 9.7 16.1 0.00 0.08 0.08 51 1012.0
20260505211014 14 3 0.0 22.5 0.00 0.08 0.08 51 1011.8
20260505210510 15 317 9.7 16.1 0.00 0.08 0.08 46 1011.7
20260505210008 15 316 3.2 8.0 0.00 0.08 0.08 48 1011.7
20260505205506 14 233 4.8 16.1 0.00 0.08 0.08 51 1011.5
20260505205003 13 312 8.0 16.1 0.00 0.08 0.08 55 1011.7
20260505204500 13 245 6.4 12.9 0.00 0.08 0.08 53 1011.8
20260505203957 13 221 14.5 17.7 0.00 0.08 0.08 51 1011.9
20260505203453 13 214 11.3 14.5 0.00 0.08 0.08 54 1012.2
20260505202950 13 251 6.4 12.9 0.00 0.08 0.08 53 1012.2
20260505202447 13 118 1.6 14.5 0.00 0.08 0.08 57 1011.8
20260505201943 12 219 8.0 17.7 0.00 0.08 0.08 58 1012.0
20260505201440 12 326 4.8 9.7 0.00 0.08 0.08 60 1012.4
20260505200938 12 201 9.7 17.7 0.00 0.08 0.08 58 1012.2
20260505200436 13 199 8.0 17.7 0.00 0.08 0.08 57 1011.9
20260505195931 12 17 3.2 12.9 0.00 0.08 0.08 63 1012.0
20260505195428 12 246 9.7 16.1 0.00 0.08 0.08 61 1012.2
20260505194925 12 309 9.7 17.7 0.18 0.08 0.08 63 1012.2
20260505194423 11 226 8.0 16.1 0.18 0.08 0.08 66 1012.4
20260505193922 11 311 9.7 17.7 0.00 0.05 0.05 65 1012.3
20260505193420 11 291 4.8 12.9 0.00 0.05 0.05 69 1012.2
20260505192918 10 282 4.8 16.1 0.00 0.05 0.05 74 1012.5
20260505192416 10 189 8.0 12.9 0.00 0.05 0.05 76 1012.5
20260505191913 10 20 0.0 8.0 0.00 0.05 0.05 82 1012.5
20260505191412 10 354 1.6 9.7 0.00 0.05 0.05 81 1012.5
20260505190908 9 12 0.0 3.2 0.00 0.05 0.05 88 1012.5
20260505190404 8 209 3.2 9.7 0.13 0.05 0.05 84 1012.8
20260505185859 8 278 1.6 8.0 0.30 0.05 0.05 85 1012.9
20260505185356 8 287 4.8 8.0 0.18 0.03 0.03 82 1012.8
20260505184852 10 338 8.0 12.9 0.00 0.00 0.00 74 1012.9
20260505184349 11 295 8.0 11.3 0.00 0.00 0.00 66 1013.0
20260505183846 11 237 8.0 12.9 0.00 0.00 0.00 58 1012.5
20260505183343 12 148 4.8 11.3 0.00 0.00 0.00 57 1012.5
20260505182840 13 173 9.7 14.5 0.00 0.00 0.00 50 1012.5
20260505182337 13 249 9.7 24.1 0.00 0.00 0.00 49 1012.8
20260505181834 13 207 4.8 12.9 0.00 0.00 0.00 50 1012.7
20260505181331 13 198 8.0 16.1 0.00 0.00 0.00 48 1012.7
20260505180827 13 237 4.8 17.7 0.00 0.00 0.00 49 1012.8
20260505180324 13 207 8.0 24.1 0.00 0.00 0.00 49 1012.8
20260505175820 13 198 6.4 14.5 0.00 0.00 0.00 49 1012.8
20260505175317 12 149 9.7 12.9 0.00 0.00 0.00 50 1012.8
20260505174813 12 156 6.4 11.3 0.00 0.00 0.00 51 1012.8
20260505174311 13 229 6.4 14.5 0.00 0.00 0.00 49 1012.7
20260505173806 13 228 8.0 12.9 0.00 0.00 0.00 49 1012.7
20260505173303 12 133 8.0 12.9 0.00 0.00 0.00 49 1012.8
20260505172800 13 165 4.8 9.7 0.00 0.00 0.00 47 1012.8
20260505172257 13 265 4.8 9.7 0.00 0.00 0.00 49 1012.9
20260505171752 12 85 1.6 9.7 0.00 0.00 0.00 51 1013.1
20260505171249 11 184 4.8 8.0 0.00 0.00 0.00 53 1013.4
20260505170746 10 69 0.0 0.0 0.00 0.00 0.00 55 1013.0
20260505170243 10 219 3.2 8.0 0.00 0.00 0.00 55 1013.0
20260505165738 10 123 4.8 8.0 0.00 0.00 0.00 55 1013.3
20260505165234 10 259 4.8 8.0 0.00 0.00 0.00 54 1013.0
20260505164730 10 134 3.2 4.8 0.00 0.00 0.00 56 1013.5
20260505164227 10 160 4.8 4.8 0.00 0.00 0.00 57 1013.1
20260505163725 9 70 0.0 3.2 0.00 0.00 0.00 60 1013.4
20260505163224 8 88 1.6 1.6 0.00 0.00 0.00 64 1013.1
20260505162721 8 39 1.6 4.8 0.00 0.00 0.00 67 1013.4
20260505162218 8 44 1.6 3.2 0.00 0.00 0.00 65 1013.5
20260505161715 8 36 3.2 9.7 0.00 0.00 0.00 63 1013.4
20260505161212 8 58 1.6 4.8 0.00 0.00 0.00 64 1013.8
20260505160710 9 22 0.0 1.6 0.00 0.00 0.00 63 1013.9
20260505160207 9 0 1.6 3.2 0.00 0.00 0.00 60 1013.6
20260505153146 9 200 1.6 1.6 0.00 0.00 0.00 55 1013.5
20260505152643 9 193 3.2 3.2 0.00 0.00 0.00 55 1013.8
20260505152139 10 199 8.0 11.3 0.00 0.00 0.00 54 1013.6
20260505151634 9 19 0.0 1.6 0.00 0.00 0.00 55 1013.9
20260505151132 9 23 3.2 3.2 0.00 0.00 0.00 55 1013.8
20260505150628 9 350 6.4 12.9 0.00 0.00 0.00 56 1013.9
20260505150125 9 348 1.6 4.8 0.00 0.00 0.00 56 1014.0
20260505140553 10 18 1.6 4.8 0.00 0.00 0.00 48 1013.8
20260505125007 8 32 0.0 1.6 0.00 0.00 0.00 52 1013.5
20260505124503 8 46 0.0 0.0 0.00 0.00 0.00 51 1013.8
20260505124000 9 46 0.0 0.0 0.00 0.00 0.00 51 1013.6
20260505123456 9 42 0.0 0.0 0.00 0.00 0.00 49 1013.5
20260505122952 9 57 0.0 0.0 0.00 0.00 0.00 49 1013.8
20260505122450 9 58 0.0 0.0 0.00 0.00 0.00 48 1013.6
20260505121946 10 97 0.0 1.6 0.00 0.00 0.00 47 1013.8
20260505121443 10 18 0.0 1.6 0.00 0.00 0.00 46 1013.5
20260505120939 10 22 3.2 8.0 0.00 0.00 0.00 46 1013.8
20260505120436 9 215 6.4 9.7 0.00 0.00 0.00 46 1013.6
20260505115935 10 21 0.0 1.6 0.00 0.00 0.00 45 1013.3
20260505115432 10 18 0.0 1.6 0.00 0.00 0.00 45 1013.3
20260505114930 9 19 0.0 11.3 0.00 0.00 0.00 45 1013.1
20260505114426 9 35 0.0 0.0 0.00 0.00 0.00 42 1012.9
20260505113922 10 23 0.0 0.0 0.00 0.00 0.00 41 1013.0
20260505113419 10 1 0.0 1.6 0.00 0.00 0.00 40 1013.1
20260505112915 10 337 1.6 4.8 0.00 0.00 0.00 40 1013.4
20260505112413 10 264 4.8 8.0 0.00 0.00 0.00 40 1013.0
20260505111908 9 294 0.0 3.2 0.00 0.00 0.00 41 1013.3
20260505111403 9 39 0.0 0.0 0.00 0.00 0.00 39 1013.5
20260505110900 10 80 0.0 0.0 0.00 0.00 0.00 38 1013.4
20260505110357 9 27 0.0 0.0 0.00 0.00 0.00 37 1013.4
20260505101827 10 126 1.6 4.8 0.00 0.00 0.00 34 1013.4
20260505101322 10 107 0.0 1.6 0.00 0.00 0.00 34 1013.3
20260505100818 10 32 0.0 1.6 0.00 0.00 0.00 33 1013.0
20260505100315 11 355 1.6 3.2 0.00 0.00 0.00 33 1012.8
20260505095811 11 7 3.2 8.0 0.00 0.00 0.00 32 1012.9
20260505095309 11 25 1.6 4.8 0.00 0.00 0.00 31 1013.0
20260505094804 11 29 0.0 3.2 0.00 0.00 0.00 30 1012.9
20260505094301 11 25 0.0 1.6 0.00 0.00 0.00 30 1012.7
20260505093757 11 43 1.6 3.2 0.00 0.00 0.00 32 1012.7
20260505093255 11 35 0.0 1.6 0.00 0.00 0.00 31 1012.4
20260505092751 11 25 4.8 4.8 0.00 0.00 0.00 32 1012.7
20260505092250 11 0 1.6 11.3 0.00 0.00 0.00 33 1012.8
20260505091747 11 315 4.8 8.0 0.00 0.00 0.00 34 1012.7
20260505091245 11 313 8.0 14.5 0.00 0.00 0.00 36 1012.8
20260505090742 11 19 3.2 8.0 0.00 0.00 0.00 36 1013.1
20260505090240 11 310 8.0 12.9 0.00 0.00 0.00 36 1013.1
20260505085738 11 50 0.0 3.2 0.00 0.00 0.00 37 1013.1
20260505085236 11 25 3.2 11.3 0.00 0.00 0.00 37 1013.1
20260505084732 11 27 0.0 1.6 0.00 0.00 0.00 37 1013.3
20260505084232 11 338 1.6 4.8 0.00 0.00 0.00 37 1013.0
20260505083728 11 341 3.2 3.2 0.00 0.00 0.00 37 1013.3
20260505083225 11 19 1.6 11.3 0.00 0.00 0.00 36 1013.5
20260505082721 11 345 1.6 11.3 0.00 0.00 0.00 36 1013.1
20260505082219 11 24 1.6 14.5 0.00 0.00 0.00 36 1013.1
20260505081714 12 163 0.0 4.8 0.00 0.00 0.00 36 1013.5
20260505081212 12 40 0.0 11.3 0.00 0.00 0.00 36 1013.3
20260505080709 12 32 0.0 9.7 0.00 0.00 0.00 36 1013.3
20260505080204 12 34 14.5 24.1 0.00 0.00 0.00 36 1013.5
20260505075700 12 318 11.3 20.9 0.00 0.00 0.00 35 1013.4
20260505075157 12 5 1.6 12.9 0.00 0.00 0.00 35 1013.4
20260505074654 12 337 9.7 14.5 0.00 0.00 0.00 35 1013.3
20260505074151 12 353 4.8 4.8 0.00 0.00 0.00 34 1013.3
20260505073649 12 158 4.8 12.9 0.00 0.00 0.00 34 1013.6
20260505073147 12 295 1.6 22.5 0.00 0.00 0.00 33 1013.5
20260505072642 12 310 8.0 25.7 0.00 0.00 0.00 33 1013.4
20260505072139 12 198 1.6 14.5 0.00 0.00 0.00 33 1013.8
20260505071634 12 255 8.0 25.7 0.00 0.00 0.00 33 1013.4
20260505071133 12 67 0.0 14.5 0.00 0.00 0.00 32 1013.5
20260505070630 13 106 1.6 17.7 0.00 0.00 0.00 32 1013.5
20260505070126 13 219 4.8 9.7 0.00 0.00 0.00 32 1013.3
20260505065622 13 82 4.8 20.9 0.00 0.00 0.00 31 1013.1
20260505065118 13 289 11.3 17.7 0.00 0.00 0.00 31 1012.9
20260505064615 13 330 3.2 17.7 0.00 0.00 0.00 30 1013.1
20260505064114 13 283 12.9 17.7 0.00 0.00 0.00 30 1013.1
20260505063611 13 249 9.7 22.5 0.00 0.00 0.00 30 1012.8
20260505063107 13 5 3.2 16.1 0.00 0.00 0.00 29 1012.9
20260505062603 13 192 6.4 22.5 0.00 0.00 0.00 29 1013.1
20260505062101 13 330 8.0 29.0 0.00 0.00 0.00 29 1013.0
20260505061558 13 321 3.2 14.5 0.00 0.00 0.00 29 1013.1
20260505061056 13 194 8.0 27.4 0.00 0.00 0.00 29 1012.9
20260505060553 14 312 9.7 20.9 0.00 0.00 0.00 28 1012.5
20260505060050 14 333 8.0 14.5 0.00 0.00 0.00 28 1013.0
20260505055545 14 186 4.8 27.4 0.00 0.00 0.00 28 1013.0
20260505055042 14 216 6.4 27.4 0.00 0.00 0.00 27 1013.1
20260505054539 14 285 11.3 20.9 0.00 0.00 0.00 27 1013.1
20260505054037 14 287 4.8 14.5 0.00 0.00 0.00 27 1013.1
20260505053534 14 161 14.5 24.1 0.00 0.00 0.00 27 1012.8
20260505053031 15 217 12.9 25.7 0.00 0.00 0.00 27 1013.1
20260505052528 15 289 11.3 17.7 0.00 0.00 0.00 27 1013.1
20260505052025 15 298 6.4 25.7 0.00 0.00 0.00 26 1013.1
20260505051522 15 233 12.9 20.9 0.00 0.00 0.00 26 1013.0
20260505051020 15 293 9.7 20.9 0.00 0.00 0.00 26 1013.0
20260505050518 15 288 11.3 24.1 0.00 0.00 0.00 26 1013.3
20260505041445 15 286 8.0 16.1 0.00 0.00 0.00 26 1013.3
20260505040943 15 345 6.4 20.9 0.00 0.00 0.00 26 1013.3
20260505040440 15 8 8.0 14.5 0.00 0.00 0.00 26 1013.4
20260505035937 15 22 4.8 20.9 0.00 0.00 0.00 26 1013.6
20260505035433 15 312 19.3 32.2 0.00 0.00 0.00 26 1013.6
20260505034930 15 297 12.9 22.5 0.00 0.00 0.00 26 1013.6
20260505034426 15 296 6.4 16.1 0.00 0.00 0.00 26 1013.6
20260505033924 15 337 4.8 16.1 0.00 0.00 0.00 25 1013.5
20260505033420 16 334 8.0 17.7 0.00 0.00 0.00 25 1013.4
20260505032919 16 309 8.0 14.5 0.00 0.00 0.00 25 1013.5
20260505032415 16 332 4.8 12.9 0.00 0.00 0.00 25 1013.3
20260505031912 16 301 3.2 3.2 0.00 0.00 0.00 25 1013.1
20260505031409 16 336 3.2 20.9 0.00 0.00 0.00 24 1013.1
20260505030906 16 261 11.3 17.7 0.00 0.00 0.00 24 1013.0
20260505030402 16 341 12.9 24.1 0.00 0.00 0.00 23 1013.0
20260505025857 16 258 8.0 9.7 0.00 0.00 0.00 23 1012.8
20260505025355 16 266 9.7 14.5 0.00 0.00 0.00 23 1013.4
20260505024854 16 348 16.1 33.8 0.00 0.00 0.00 23 1013.0
20260505024351 16 303 6.4 14.5 0.00 0.00 0.00 23 1013.0
20260505023848 17 359 3.2 9.7 0.00 0.00 0.00 23 1012.8
20260505023345 17 300 14.5 22.5 0.00 0.00 0.00 23 1013.0
20260505022842 17 309 4.8 17.7 0.00 0.00 0.00 23 1012.9
20260505022339 16 194 8.0 12.9 0.00 0.00 0.00 23 1012.8
20260505021836 16 22 1.6 4.8 0.00 0.00 0.00 24 1012.9
20260505021333 17 335 4.8 8.0 0.00 0.00 0.00 23 1012.8
20260505020828 17 318 3.2 4.8 0.00 0.00 0.00 23 1012.8
20260505020324 17 16 0.0 9.7 0.00 0.00 0.00 23 1012.8
20260505015821 17 175 1.6 3.2 0.00 0.00 0.00 22 1012.8
20260505015318 17 317 9.7 25.7 0.00 0.00 0.00 22 1012.7
20260505014816 17 326 4.8 16.1 0.00 0.00 0.00 22 1012.5
20260505014312 17 27 3.2 8.0 0.00 0.00 0.00 22 1012.7
20260505013809 17 346 4.8 8.0 0.00 0.00 0.00 22 1012.4
20260505013306 17 353 11.3 20.9 0.00 0.00 0.00 21 1012.5
20260505012805 17 332 8.0 12.9 0.00 0.00 0.00 21 1012.3
20260505012304 17 9 3.2 12.9 0.00 0.00 0.00 21 1012.5
20260505011757 17 241 3.2 22.5 0.00 0.00 0.00 21 1012.2
20260505011255 17 21 1.6 8.0 0.00 0.00 0.00 21 1012.2
20260505010750 17 274 3.2 4.8 0.00 0.00 0.00 20 1012.2
20260505010247 17 325 4.8 14.5 0.00 0.00 0.00 20 1011.9
20260505005743 17 294 4.8 8.0 0.00 0.00 0.00 20 1012.4
20260505005240 17 235 3.2 16.1 0.00 0.00 0.00 20 1012.4